Weather History for RJAM - May, 2014

Change the Weather History Date:

Saturday, May 10, 2014

  Actual Average Record
Temperature  
Mean Temperature 78 °F -  
Max Temperature 82 °F - - ()
Min Temperature 73 °F - - ()
Cooling Degree Days 12    
Growing Degree Days 28 (Base 50)    
Moisture  
Dew Point 73 °F    
Average Humidity 82    
Maximum Humidity 91    
Minimum Humidity 67    
Precipitation  
Precipitation 0.00 in - - ()
Sea Level Pressure  
Sea Level Pressure 29.98 in    
Wind  
Wind Speed 9 mph ()    
Max Wind Speed 13 mph    
Max Gust Speed -    
T = Trace of Precipitation, MM = Missing Value Source: Averaged Metar Reports

Daily Weather History Graph

Daily Weather History Graph

Search for Another Location

Airport or City:

Trip Planner

Search our weather history database for the weather conditions in past years. The results will help you decide how hot, cold, wet, or windy it might be!

Date:

Astronomy

May. 10, 2014 Rise Set
Actual Time 5:03 AM ChST 6:17 PM ChST
Civil Twilight 4:39 AM ChST 6:41 PM ChST
Nautical Twilight 4:10 AM ChST 7:10 PM ChST
Astronomical Twilight 3:41 AM ChST 7:40 PM ChST
Moon 2:03 PM ChST (5/10) 1:43 AM ChST (5/10)
Length of Visible Light 14h 02m
Length of Day
13h 13m
Waxing Gibbous, 77% of the Moon is Illuminated
May 10
Waxing Gibbous
May 15
Full
May 21
Last Quarter
May 29
New
Jun 6
First Quarter

Hourly Weather History & Observations

Time (ChST) Temp. Dew Point Humidity Pressure Visibility Wind Dir Wind Speed Gust Speed Precip Events Conditions
12:00 AM 75 °F 71 °F 85% 30.02 in - SE 12.7 mph - -  
1:00 AM 75 °F 72 °F 86% 30.00 in - SE 12.7 mph - -  
2:00 AM 74 °F 72 °F 90% 29.98 in - SE 11.5 mph - -  
3:00 AM 74 °F 72 °F 91% 29.98 in - SE 10.4 mph - -  
4:00 AM 74 °F 72 °F 90% 29.99 in - SSE 9.2 mph - -  
5:00 AM 74 °F 72 °F 91% 29.99 in - SE 10.4 mph - -  
6:00 AM 75 °F 72 °F 88% 30.01 in - SE 11.5 mph - -  
7:00 AM 77 °F 72 °F 82% 30.01 in - SSE 11.5 mph - -  
8:00 AM 79 °F 73 °F 78% 30.02 in - SSE 11.5 mph - -  
9:00 AM 80 °F 72 °F 72% 30.02 in - SSE 10.4 mph - -  
10:00 AM 81 °F 73 °F 70% 30.01 in - SSE 10.4 mph - -  
11:00 AM 82 °F 73 °F 67% 29.99 in - SSE 11.5 mph - -  
12:00 PM 82 °F 73 °F 67% 29.98 in - SSE 10.4 mph - -  
1:00 PM 81 °F 73 °F 71% 29.97 in - South 11.5 mph - -  
2:00 PM 81 °F 74 °F 73% 29.95 in - South 9.2 mph - -  
3:00 PM 80 °F 73 °F 73% 29.95 in - South 6.9 mph - -  
4:00 PM 80 °F 73 °F 75% 29.94 in - SSE 9.2 mph - -  
5:00 PM 78 °F 73 °F 81% 29.95 in - South 8.1 mph - -  
6:00 PM 77 °F 74 °F 86% 29.96 in - South 8.1 mph - -  
7:00 PM 77 °F 74 °F 87% 29.97 in - South 8.1 mph - -  
8:00 PM 77 °F 74 °F 87% 29.98 in - South 8.1 mph - -  
9:00 PM 77 °F 74 °F 87% 29.98 in - South 9.2 mph - -  
10:00 PM 76 °F 74 °F 90% 29.99 in - South 10.4 mph - -  
11:00 PM 76 °F 74 °F 91% 29.97 in - South 9.2 mph - -